This demonstration page uses our WeatherBlox Daily Observations layout. Learn more.

Left ArrowRight Arrow

Hourly Observations for December 30, 2017

Temp ( °F °C ) Dew Point ( °F °C ) Humidity (%) Winds ( mph kmh ) Pressure ( in mb ) Visibility ( mi km ) Precip ( " mm )
12:53 am 00:53 Clear 29 -1.7 26 -3.3 89 89 NNW 6 9 30.09 1019 10 16 0.00 0.00
1:53 am 01:53 Clear 26 -3.3 24 -4.4 92 92 N 6 9 30.08 1019 10 16 0.00 0.00
2:53 am 02:53 Clear 25 -3.9 23 -5 92 92 N 7 11 30.09 1019 10 16 0.00 0.00
3:53 am 03:53 Clear 25 -3.9 23 -5 92 92 NNE 3 6 30.08 1019 10 16 0.00 0.00
4:04 am 04:04 Partly Cloudy 26 -3.3 23 -5 88 88 NE 3 6 30.24 1024 10 16 0.00 0.00
4:16 am 04:16 Mostly Cloudy 25 -3.9 23 -5 92 92 NE 3 6 30.24 1024 10 16 0.00 0.00
4:53 am 04:53 Cloudy with Mist and Fog 25 -3.9 24 -4.4 96 96 N 5 7 30.07 1018 2 2 0.00 0.00
5:03 am 05:03 Mostly Cloudy with Freezing Fog 25 -3.9 24 -4.4 96 96 NNW 3 6 30.24 1024 1 1 0.00 0.00
5:13 am 05:13 Mostly Cloudy with Freezing Fog 26 -3.3 25 -3.9 96 96 NNW 5 7 30.24 1024 0 0 0.00 0.00
5:43 am 05:43 Mostly Cloudy with Mist and Fog 25 -3.9 24 -4.4 96 96 NNW 7 11 30.24 1024 1 1 0.00 0.00
5:47 am 05:47 Cloudy with Mist and Fog 25 -4 25 -4 100 100 undefined N/A 30.24 1024 2 3 0.00 0.00
5:53 am 05:53 Cloudy with Mist and Fog 25 -3.9 24 -4.4 96 96 NNW 7 11 30.09 1019 5 8 0.00 0.00
6:04 am 06:04 Cloudy with Mist and Fog 24 -4.4 24 -4.4 100 100 NW 5 7 30.27 1025 2 3 0.00 0.00
6:15 am 06:15 Mostly Cloudy with Mist and Fog 24 -4.4 23 -5 96 96 NNW 5 7 30.27 1025 3 5 0.00 0.00
6:23 am 06:23 Partly Cloudy with Mist and Fog 24 -4.4 22 -5.6 91 91 N 6 9 30.27 1025 6 10 0.00 0.00
6:33 am 06:33 Mostly Cloudy with Mist and Fog 27 -2.8 26 -3.3 96 96 NNE 10 17 30.27 1025 2 3 0.00 0.00
6:44 am 06:44 Partly Cloudy with Mist and Fog 27 -2.8 27 -2.8 100 100 NNE 7 11 30.27 1025 2 3 0.00 0.00
6:53 am 06:53 Partly Cloudy with Mist and Fog 26 -3.3 26 -3.3 100 100 N 5 7 30.13 1020 3 5 0.00 0.00
7:53 am 07:53 Sunny 26 -3.3 24 -4.4 92 92 N 7 11 30.17 1022 10 16 0.00 0.00
8:53 am 08:53 Sunny 31 -0.6 27 -2.8 85 85 N 8 13 30.19 1023 10 16 0.00 0.00
9:53 am 09:53 Sunny 41 5 30 -1.1 65 65 NNE 13 20 30.20 1023 10 16 0.00 0.00
10:53 am 10:53 Sunny 44 6.7 31 -0.6 60 60 NE 13 20 30.21 1023 10 16 0.00 0.00
11:53 am 11:53 Sunny 46 7.8 33 0.6 61 61 ENE 12 19 30.20 1023 10 16 0.00 0.00
12:53 pm 12:53 Sunny 49 9.4 34 1.1 56 56 NE 9 15 30.16 1022 10 16 0.00 0.00
1:53 pm 13:53 Sunny 53 11.7 34 1.1 48 48 ENE 8 13 30.11 1020 10 16 0.00 0.00
2:53 pm 14:53 Sunny 55 12.8 34 1.1 45 45 ESE 8 13 30.09 1019 10 16 0.00 0.00
3:53 pm 15:53 Sunny 55 12.8 34 1.1 45 45 ESE 9 15 30.06 1018 10 16 0.00 0.00
4:53 pm 16:53 Sunny 53 11.7 35 1.7 51 51 SE 12 19 30.06 1018 10 16 0.00 0.00
5:53 pm 17:53 Sunny 47 8.3 34 1.1 61 61 SE 10 17 30.07 1018 10 16 0.00 0.00
6:53 pm 18:53 Clear 40 4.4 33 0.6 77 77 ESE 10 17 30.09 1019 10 16 0.00 0.00
7:53 pm 19:53 Clear 34 1.1 31 -0.6 89 89 E 9 15 30.11 1020 10 16 0.00 0.00
8:53 pm 20:53 Clear 31 -0.6 30 -1.1 96 96 E 6 9 30.11 1020 7 11 0.00 0.00
9:14 pm 21:14 Partly Cloudy with Mist and Fog 30 -1.1 29 -1.7 96 96 E 3 6 30.21 1023 6 10 0.00 0.00
9:23 pm 21:23 Mostly Cloudy with Mist and Fog 30 -1.1 29 -1.7 96 96 E 5 7 30.21 1023 6 10 0.00 0.00
9:30 pm 21:30 Mostly Cloudy with Mist and Fog 31 -0.6 30 -1.1 96 96 E 8 13 30.21 1023 2 2 0.00 0.00
9:41 pm 21:41 Mostly Cloudy with Mist and Fog 31 -0.6 31 -0.6 100 100 E 9 15 30.21 1023 1 1 0.00 0.00
9:53 pm 21:53 Cloudy with Mist and Fog 32 0 31 -0.6 96 96 E 9 15 30.09 1019 2 3 0.00 0.00
10:11 pm 22:11 Cloudy with Mist and Fog 32 0 31 -0.6 96 96 E 7 11 30.21 1023 1 2 0.00 0.00
10:22 pm 22:22 Mostly Cloudy with Mist and Fog 32 0 31 -0.6 96 96 E 6 9 30.21 1023 1 1 0.00 0.00
10:53 pm 22:53 Mostly Cloudy with Fog 32 0 31 -0.6 96 96 E 7 11 30.09 1019 1 1 0.00 0.00
11:53 pm 23:53 Mostly Cloudy with Fog 32 0 32 0 100 100 E 5 7 30.09 1019 1 1 0.00 0.00

Powered by AerisWeather